Погода в Тихвине

Погода в Тихвине : погода сейчас, прогноз погоды и архив. Всё, что Вы хотите узнать о погоде в Тихвине!

Хотите узнать прогноз погоды в Тихвине? Тогда Вам сюда: Погода в Тихвине

Поиск расширенной информации на нашем сайте:

Другие новости

Новости СМИ2

Главная страница сайта

Новости сайта

02.10.2013

Напоминаем, что на нашем новом сайте вы можете получить высокодетализированные прогнозы погоды по пунктам России, СНГ и мира (включающие важные для авиации метеовеличины, такие как направление и скорость ветра, видимость, явления погоды, количество и форма облачности, нижняя и верхняя граница облачности), а также ознакомиться с разнообразными материалами по авиационной метеорологии и подборкой полезных ссылок на эту тему.

Сайт Метеоцентр.Азия посвящён разработке технологий оптимизации авиаметеорологического обслуживания, включая проектирование и перспективное создание нескольких автоматизированных авиаметеорологических систем:
- система выпуска высокодетальных прогностических карт явлений погоды для нижнего воздушного пространства по России и ближнему зарубежью;
- система верификации прогнозов TAF (выпускаемых синоптиками официальных АМСГ РФ и ближнего зарубежья) и AUTOTAF (выпускаемых сайтом Метеоцентр.Азия) - выявление ошибок, онлайн-сопоставление с фактической погодой METAR, автоматическое внесение коррективов в прогнозы при резком отклонении фактической погоды от прогноза, подсчёт оправдываемости прогнозов по элементам и в целом;
- система обработки, анализа и отображения авиаметеорологической информации для применения провайдерами метеорологической информации.

Рекомендуем: Материал не впитывает жидкости. Барные стойки из искусственного камня - практичное решение.

Погода в Тихвине - сегодня

Время (UTC), дата Ветер
(°,м/с) 
Видим.   Явления Облачность Т
(°С)
Тd
(°С)
f(%) Тe
(°С)
Pmin
(гПа)
dP
(гПа)
Po
(мм)
O2
(г/м3)
Тmin Tmax R s Состояние
почвы
09 26.04.17 220 (ЮЗ) 50000 м  {дождь}  5/5 1000 м 
[Cu hum]
+7.9 +0.6 60 +7  1001.7  1.8  746  292           
12 26.04.17 190 (Ю) 5-11{11}  50000 м  {дождь}  5/5 600 м кучево-дожд. 
[Cb calv]
+9.2 -3.7 40 +8  1002  0.4  746  291           
15 26.04.17 220 (ЮЗ) 3{12}  40000 м  {дождь}  6/6 600 м кучево-дожд. 
[Cb calv]
+7.9 -2.3 48 +7  1002.5  0.4  746  292         
18 26.04.17 230 (ЮЗ) 3{12}  20000 м  {дождь}  9/9 900 м 
[Sc]
+4.8 -0.3 70 +4  1004.3  1.7  747  296    +9.7  0.4     
21 26.04.17 230 (ЮЗ) 3{10}  20000 м  {ливн. осадки}  10/10 1300 м 
[Sc]
+3.2 +0.6 83 +2  1005.9  1.5  749  298           
00 27.04.17 220 (ЮЗ) 3{10}  20000 м  {ливн. осадки}  ясно 
+2.2 -1.1 79 +1  1007.8  1.8  750  300           
03 27.04.17 220 (ЮЗ) 18000 м    9/9 840 м 
[Sc]
+1.8 -1.8 77 +1  1009.2  1.4  751  301  +1.4       
06 27.04.17 220 (ЮЗ) 29000 м    6/6 600 м 
[Sc]
+3.7 -2.1 66 +2  1010.4  1.2  752  299  +1.4       
09 27.04.17 210 (ЮЗ) 4{11}  35000 м    8/6 600 м верхняя 
[Sc|Ci fib]
+7.5 -4.1 44 +6  1010.9  0.6  752  296           
12 27.04.17 230 (ЮЗ) 4{11}  50000 м    8/5 600 м верхняя 
[Sc|Ci fib]
+8.4 -6.7 34 +7  1011.4  0.5  753  295           
15 27.04.17 240 (ЮЗ) 4-10{10}  40000 м    9/6 600 м кучево-дожд., средняя 
[Cb calv|Ac trans]
+8.1 -5.6 37 +7  1012.5  754  295           
18 27.04.17 180 (Ю) 1{10}  20000 м    3/3 600 м 
[Sc]
+3 -2.9 65 +4  1014.2  1.5  755  301    +9.6       
21 27.04.17 170 (Ю) 20000 м    1/1 600 м 
[Sc]
-0.4 -2.5 86 1015.7  1.4  756  305           
00 28.04.17 210 (ЮЗ) 20000 м    1/1 600 м 
[Sc]
+0.1 -1.9 86 +1  1016.8  757  305           
03 28.04.17 250 (З) 15000 м    8/8 600 м 
[Sc]
+0.9 -0.6 90 +2  1019.1  2.3  758  305  -1         
06 28.04.17 260 (З) 30000 м    1/1 1000 м 
[Sc]
+6.6 -1.5 56 +6  1020.5  1.6  760  299  -1         
09 28.04.17 300 (СЗ) 50000 м    3/3 1000 м 
[Cu hum]
+10 -7 29 +10  1022.1  1.8  761  297           
12 28.04.17 350 (С) 50000 м    8/4 600 м верхняя 
[Sc diur, vesp|Ci fib]
+11.3 -7.2 27 +11  1022.9  761  295           
15 28.04.17 040 (СВ) 40000 м    9/1 1000 м верхняя 
[Sc diur, vesp|Cs]
+9.9 -7.2 29 +10  1023.4  0.4  762  297           
18 28.04.17 030 (СВ) 20000 м    6/0 верхняя 
[Cs]
+6.6 -5.8 41 +6  1024.3  0.8  762  301    +11.9       
21 28.04.17 060 (СВ) 10 км    4/4 600 м 
[Sc]
+4.5 -4.6 52 +4  1024.7  0.4  763  303           
00 29.04.17 070 (В) 10 км    10/0 средняя 
[Ac und]
+4.7 -2.7 59 +4  1024.7  763  302           
03 29.04.17 070 (В) 20000 м    10/0 средняя 
[Ac und]
+4 -2.3 63 +3  1023.7  -1  762  303  +3.9         
06 29.04.17 060 (СВ) 8000 м  слаб. дождь  10/0 средняя 
[As op]
+3.3 +0.9 84 +1  1022.5  -1.2  761  303  +3.4    0.1     
09 29.04.17 070 (В) 5-10{12}  8000 м  слаб. дождь  10/10 330 м 
[Frnb|Ns]
+2.7 +1.7 93 1021  -1.5  760  303           
Время (UTC), дата Ветер
(°,м/с) 
Видим.   Явления Облачность Т
(°С)
Тd
(°С)
f(%) Тe
(°С)
Pmin
(гПа)
dP
(гПа)
Po
(мм)
O2
(г/м3)
Тmin Tmax R s Состояние
почвы

Для получения пояснительной информации подведите курсор к названию столбца.

ПОГОДА в Тихвине - архив

Всё, что Вы хотите узнать о погоде в Тихвине - удобно и подробно!

Выберите нужную дату (начиная с 1 января 2015* года) и нажмите кнопку "Найти".
Будут отображены архивные сводки погоды по пункту Тихвин, начиная с указанной даты.


Отображать данные в формате CSV (для использования в таблицах Excel)


Внимание! Наш архив погоды предназначен исключительно для личного некоммерческого использования в познавательных целях. Если Вам необходимы официальные справки о состоянии погоды (для производственных, юридических, коммерческих и т.п. целей), обращайтесь в органы Росгидромета.

*Примечание: данная дата относится к архиву по метеостанциям СССР (Россия, СНГ, Балтия).
Архив по метеостанциям Зарубежной Европы и Азии (кроме Китая) хранится 10 дней, по другим регионам земного шара (Китай, Африка, Америка, Австралия, Океания) - 1 день.

Тихвин - район местоположения метеостанции


Название, широта, долгота, высота метеостанции:
Тихвин 59.6°ш. 33.6°д. 61 м над ур. моря [Российская Федерация]

Дополнительная информация

В oтличие oт бoльшинства пoгoдных сайтoв мы публикуем пoдрoбную метеoинфoрмацию в детальнoм прoфессиoнальнoм фoрмате.

Характеристики температуры и влажнoсти вoздуха измеряются на высoте 2 м в тени вдали oт зданий и деревьев.
Скoрoсть ветра измеряется на высoте 10 м (на урoвне рoста челoвека скoрoсть ветра ниже в 1.5-2 раза). Если метеoстанция нахoдится в гoрoде или в лесу, тo скoрoсть ветра занижена на 2-4 м/с пo сравнению с oткрытым местoм. Скoрoсть ветра над акватoриями крупных рек и oзёр, а также на вершинах хoлмoв на 2-5 м/с выше, чем в oбычных услoвиях.
Атмoсфернoе давление в разных тoчках местнoсти мoжет значительнo oтличаться oт давления на метеoстанции, в зависимoсти oт услoвий рельефа (при пoдъёме на 10 м давление пoнижается примернo на 1 мм рт.ст.).